| time (UTC) | temp F | wind direction | speed MPH | gust MPH | rain 1hr in | rain 24hr in | rain mn in | humidity % | barometer mb |
| 20260505022446 | 50 | 196 | 7.0 | 50.0 | 4.88 | 0.78 | 0.00 | 62 | 1001.2 |
| 20260505022046 | 50 | 194 | 7.0 | 50.0 | 4.88 | 0.77 | 0.00 | 62 | 1001.3 |
| 20260505021646 | 50 | 196 | 7.0 | 50.0 | 4.88 | 0.77 | 0.00 | 62 | 1001.2 |
| 20260505021246 | 50 | 200 | 7.0 | 50.0 | 4.88 | 0.78 | 0.00 | 62 | 1001.3 |
| 20260505020846 | 50 | 196 | 7.0 | 50.0 | 4.88 | 0.78 | 0.00 | 62 | 1001.2 |
| 20260505020446 | 50 | 189 | 7.0 | 50.0 | 4.88 | 0.78 | 0.00 | 62 | 1001.2 |
| 20260505020046 | 50 | 190 | 7.0 | 50.0 | 4.88 | 0.78 | 0.00 | 61 | 1001.3 |
| 20260505015646 | 52 | 189 | 9.0 | 50.0 | 4.88 | 0.79 | 0.00 | 61 | 1001.3 |
| 20260505015246 | 52 | 183 | 8.0 | 50.0 | 4.92 | 0.80 | 0.00 | 61 | 1001.3 |
| 20260505014846 | 52 | 179 | 9.0 | 50.0 | 4.92 | 0.80 | 0.00 | 61 | 1001.4 |
| 20260505014446 | 52 | 189 | 9.0 | 50.0 | 4.92 | 0.80 | 0.00 | 61 | 1001.4 |
| 20260505014046 | 52 | 189 | 8.0 | 50.0 | 4.92 | 0.80 | 0.00 | 61 | 1001.4 |
| 20260505013646 | 52 | 177 | 10.0 | 50.0 | 4.92 | 0.81 | 0.00 | 61 | 1001.4 |
| 20260505013246 | 52 | 189 | 9.0 | 50.0 | 4.92 | 0.81 | 0.00 | 60 | 1001.4 |
| 20260505012846 | 52 | 183 | 7.0 | 50.0 | 4.92 | 0.81 | 0.00 | 60 | 1001.4 |
| 20260505012446 | 52 | 177 | 8.0 | 50.0 | 4.92 | 0.80 | 0.00 | 60 | 1001.4 |
| 20260505012046 | 52 | 173 | 8.0 | 50.0 | 4.92 | 0.80 | 0.00 | 60 | 1001.4 |
| 20260505011646 | 54 | 173 | 9.0 | 50.0 | 4.92 | 0.80 | 0.00 | 60 | 1001.4 |
| 20260505011246 | 54 | 161 | 8.0 | 50.0 | 4.92 | 0.81 | 0.00 | 60 | 1001.4 |
| 20260505010846 | 54 | 173 | 7.0 | 50.0 | 4.92 | 0.81 | 0.00 | 60 | 1001.4 |
| 20260505010446 | 54 | 173 | 9.0 | 50.0 | 4.92 | 0.81 | 0.00 | 60 | 1001.4 |
| 20260505010046 | 54 | 155 | 6.0 | 50.0 | 4.92 | 0.81 | 0.00 | 59 | 1001.5 |
| 20260505005246 | 54 | 166 | 6.0 | 50.0 | 4.92 | 0.81 | 0.00 | 59 | 1001.5 |
| 20260505004847 | 54 | 166 | 7.0 | 50.0 | 4.92 | 0.81 | 0.00 | 59 | 1001.5 |
| 20260505004046 | 54 | 173 | 9.0 | 50.0 | 4.92 | 0.83 | 0.00 | 59 | 1001.6 |
| 20260505003646 | 54 | 183 | 9.0 | 50.0 | 4.92 | 0.83 | 0.00 | 59 | 1001.5 |
| 20260505003246 | 54 | 168 | 8.0 | 50.0 | 4.92 | 0.82 | 0.00 | 59 | 1001.5 |
| 20260505002846 | 54 | 172 | 8.0 | 50.0 | 4.92 | 0.83 | 0.00 | 59 | 1001.5 |
| 20260505002446 | 54 | 179 | 8.0 | 50.0 | 4.92 | 0.83 | 0.00 | 58 | 1001.5 |
| 20260505002046 | 55 | 172 | 8.0 | 50.0 | 4.92 | 0.84 | 0.00 | 58 | 1001.5 |
| 20260505001646 | 55 | 161 | 9.0 | 50.0 | 4.92 | 0.84 | 0.00 | 58 | 1001.5 |
| 20260505001246 | 55 | 173 | 10.0 | 50.0 | 4.92 | 0.84 | 0.00 | 58 | 1001.5 |
| 20260505000846 | 55 | 168 | 8.0 | 50.0 | 4.92 | 0.84 | 0.00 | 58 | 1001.6 |
| 20260505000446 | 55 | 168 | 7.0 | 50.0 | 4.92 | 0.84 | 0.00 | 58 | 1001.6 |
| 20260505000046 | 55 | 179 | 9.0 | 50.0 | 4.92 | 0.85 | 0.00 | 58 | 1001.6 |
| 20260504235646 | 55 | 177 | 8.0 | 50.0 | 4.92 | 0.84 | 0.00 | 58 | 1001.6 |
| 20260504235246 | 55 | 173 | 9.0 | 50.0 | 4.92 | 0.85 | 0.00 | 58 | 1001.6 |
| 20260504234846 | 55 | 173 | 7.0 | 50.0 | 4.92 | 0.85 | 0.00 | 58 | 1001.7 |
| 20260504234447 | 55 | 166 | 8.0 | 50.0 | 4.92 | 0.85 | 0.00 | 58 | 1001.7 |
| 20260504233646 | 55 | 189 | 9.0 | 50.0 | 4.92 | 0.86 | 0.00 | 58 | 1001.8 |
| 20260504233246 | 55 | 168 | 8.0 | 50.0 | 4.92 | 0.86 | 0.00 | 58 | 1001.8 |
| 20260504232846 | 57 | 184 | 8.0 | 50.0 | 4.92 | 0.86 | 0.00 | 58 | 1001.8 |
| 20260504232446 | 55 | 168 | 8.0 | 50.0 | 4.92 | 0.85 | 0.00 | 58 | 1001.9 |
| 20260504232046 | 55 | 173 | 9.0 | 50.0 | 4.92 | 0.86 | 0.00 | 57 | 1001.9 |
| 20260504231646 | 55 | 168 | 7.0 | 50.0 | 4.92 | 0.85 | 0.00 | 57 | 1002.0 |
| 20260504231246 | 55 | 183 | 6.0 | 50.0 | 4.92 | 0.84 | 0.00 | 57 | 1002.0 |
| 20260504230846 | 55 | 149 | 7.0 | 50.0 | 4.92 | 0.85 | 0.00 | 57 | 1002.0 |
| 20260504230446 | 55 | 173 | 7.0 | 50.0 | 4.92 | 0.85 | 0.00 | 57 | 1002.0 |
| 20260504230046 | 57 | 179 | 7.0 | 50.0 | 4.92 | 0.85 | 0.00 | 57 | 1002.1 |
| 20260504225246 | 55 | 168 | 6.0 | 50.0 | 4.92 | 0.84 | 0.00 | 57 | 1002.1 |
| 20260504224846 | 57 | 173 | 5.0 | 50.0 | 4.92 | 0.84 | 0.00 | 56 | 1002.1 |
| 20260504224446 | 57 | 183 | 8.0 | 50.0 | 4.92 | 0.85 | 0.00 | 56 | 1002.2 |
| 20260504224046 | 55 | 173 | 7.0 | 50.0 | 4.92 | 0.84 | 0.00 | 56 | 1002.2 |
| 20260504223646 | 55 | 166 | 7.0 | 50.0 | 4.92 | 0.84 | 0.00 | 56 | 1002.2 |
| 20260504223246 | 57 | 179 | 8.0 | 50.0 | 4.92 | 0.86 | 0.00 | 56 | 1002.2 |
| 20260504222846 | 57 | 179 | 8.0 | 50.0 | 4.92 | 0.85 | 0.00 | 56 | 1002.2 |
| 20260504222446 | 57 | 177 | 8.0 | 50.0 | 4.92 | 0.85 | 0.00 | 55 | 1002.2 |
| 20260504222046 | 55 | 179 | 9.0 | 50.0 | 4.92 | 0.85 | 0.00 | 55 | 1002.3 |
| 20260504221646 | 55 | 184 | 9.0 | 50.0 | 4.92 | 0.85 | 0.00 | 55 | 1002.3 |
| 20260504221246 | 55 | 184 | 7.0 | 50.0 | 4.92 | 0.85 | 0.00 | 55 | 1002.3 |
| 20260504220846 | 55 | 183 | 7.0 | 50.0 | 4.92 | 0.86 | 0.00 | 55 | 1002.3 |
| 20260504220446 | 57 | 184 | 7.0 | 50.0 | 4.92 | 0.86 | 0.00 | 54 | 1002.4 |
| 20260504220046 | 57 | 183 | 7.0 | 50.0 | 4.92 | 0.87 | 0.00 | 54 | 1002.4 |
| 20260504215646 | 57 | 173 | 9.0 | 50.0 | 4.92 | 0.87 | 0.00 | 54 | 1002.4 |
| 20260504215246 | 57 | 179 | 8.0 | 50.0 | 4.92 | 0.88 | 0.00 | 54 | 1002.4 |
| 20260504214846 | 57 | 179 | 7.0 | 50.0 | 4.92 | 0.89 | 0.00 | 54 | 1002.4 |
| 20260504214447 | 57 | 183 | 9.0 | 50.0 | 4.92 | 0.89 | 0.00 | 54 | 1002.4 |
| 20260504214046 | 57 | 179 | 9.0 | 50.0 | 4.92 | 0.89 | 0.00 | 53 | 1002.4 |
| 20260504213646 | 57 | 179 | 8.0 | 50.0 | 4.96 | 0.89 | 0.00 | 53 | 1002.4 |
| 20260504213246 | 57 | 183 | 8.0 | 50.0 | 4.96 | 0.90 | 0.00 | 53 | 1002.4 |
| 20260504212846 | 57 | 183 | 8.0 | 50.0 | 4.96 | 0.90 | 0.00 | 53 | 1002.4 |
| 20260504212046 | 59 | 183 | 7.0 | 50.0 | 4.96 | 0.91 | 0.00 | 53 | 1002.4 |
| 20260504211646 | 59 | 183 | 7.0 | 50.0 | 4.96 | 0.91 | 0.00 | 53 | 1002.4 |
| 20260504211246 | 59 | 184 | 7.0 | 50.0 | 4.96 | 0.91 | 0.00 | 53 | 1002.4 |
| 20260504210846 | 61 | 177 | 7.0 | 50.0 | 4.96 | 0.91 | 0.00 | 52 | 1002.4 |
| 20260504210446 | 61 | 177 | 7.0 | 50.0 | 4.96 | 0.92 | 0.00 | 52 | 1002.4 |
| 20260504210046 | 61 | 177 | 8.0 | 50.0 | 4.96 | 0.92 | 0.00 | 52 | 1002.4 |
| 20260504205646 | 61 | 177 | 7.0 | 50.0 | 4.96 | 0.93 | 0.00 | 52 | 1002.4 |
| 20260504205246 | 59 | 184 | 7.0 | 50.0 | 4.96 | 0.94 | 0.00 | 52 | 1002.4 |
| 20260504204846 | 61 | 183 | 8.0 | 50.0 | 4.96 | 0.95 | 0.00 | 52 | 1002.4 |
| 20260504204446 | 61 | 173 | 6.0 | 50.0 | 4.96 | 0.95 | 0.00 | 52 | 1002.4 |
| 20260504204046 | 61 | 179 | 8.0 | 50.0 | 4.96 | 0.96 | 0.00 | 52 | 1002.4 |
| 20260504203646 | 61 | 179 | 8.0 | 50.0 | 4.96 | 0.96 | 0.00 | 52 | 1002.4 |
| 20260504203246 | 61 | 183 | 7.0 | 50.0 | 4.96 | 0.96 | 0.00 | 52 | 1002.4 |
| 20260504202846 | 61 | 183 | 9.0 | 50.0 | 4.96 | 0.96 | 0.00 | 52 | 1002.4 |
| 20260504202446 | 61 | 168 | 9.0 | 50.0 | 4.96 | 0.93 | 0.00 | 51 | 1002.4 |
| 20260504202046 | 59 | 149 | 6.0 | 50.0 | 4.96 | 0.89 | 0.00 | 51 | 1002.4 |
| 20260504201646 | 61 | 190 | 6.0 | 50.0 | 4.96 | 0.87 | 0.00 | 51 | 1002.4 |
| 20260504201246 | 61 | 139 | 5.0 | 50.0 | 4.96 | 0.86 | 0.00 | 50 | 1002.4 |
| 20260504200846 | 59 | 172 | 4.0 | 50.0 | 4.96 | 0.88 | 0.00 | 50 | 1002.4 |
| 20260504200446 | 61 | 173 | 4.0 | 50.0 | 4.96 | 0.89 | 0.00 | 50 | 1002.3 |
| 20260504200046 | 63 | 177 | 6.0 | 50.0 | 4.96 | 0.91 | 0.00 | 50 | 1002.3 |
| 20260504195646 | 61 | 177 | 4.0 | 50.0 | 4.96 | 0.90 | 0.00 | 50 | 1002.3 |
| 20260504195246 | 63 | 172 | 5.0 | 50.0 | 4.96 | 0.92 | 0.00 | 49 | 1002.3 |
| 20260504194846 | 63 | 173 | 7.0 | 50.0 | 4.96 | 0.93 | 0.00 | 49 | 1002.3 |
| 20260504194046 | 63 | 173 | 7.0 | 50.0 | 4.96 | 0.94 | 0.00 | 48 | 1002.3 |
| 20260504193646 | 63 | 172 | 7.0 | 50.0 | 4.96 | 0.94 | 0.00 | 48 | 1002.4 |
| 20260504193246 | 63 | 173 | 6.0 | 50.0 | 4.96 | 0.91 | 0.00 | 48 | 1002.3 |
| 20260504192446 | 63 | 173 | 4.0 | 50.0 | 4.96 | 0.90 | 0.00 | 47 | 1002.4 |
| 20260504192046 | 63 | 173 | 4.0 | 50.0 | 4.96 | 0.89 | 0.00 | 47 | 1002.3 |
| 20260504191646 | 63 | 156 | 3.0 | 50.0 | 4.96 | 0.90 | 0.00 | 47 | 1002.4 |
| 20260504191246 | 63 | 161 | 4.0 | 50.0 | 4.96 | 0.91 | 0.00 | 47 | 1002.3 |
| 20260504190846 | 63 | 173 | 4.0 | 50.0 | 4.96 | 0.94 | 0.00 | 46 | 1002.3 |
| 20260504190446 | 63 | 172 | 6.0 | 50.0 | 4.96 | 0.95 | 0.00 | 46 | 1002.3 |
| 20260504190046 | 63 | 166 | 5.0 | 50.0 | 4.96 | 0.94 | 0.00 | 45 | 1002.3 |
| 20260504185646 | 63 | 172 | 5.0 | 50.0 | 4.96 | 0.94 | 0.00 | 45 | 1002.3 |
| 20260504185246 | 63 | 155 | 4.0 | 50.0 | 4.96 | 0.92 | 0.00 | 45 | 1002.3 |
| 20260504184846 | 63 | 145 | 4.0 | 50.0 | 4.96 | 0.94 | 0.00 | 44 | 1002.2 |
| 20260504184446 | 63 | 162 | 4.0 | 50.0 | 4.96 | 0.94 | 0.00 | 44 | 1002.1 |
| 20260504184046 | 64 | 172 | 3.0 | 50.0 | 4.96 | 0.96 | 0.00 | 44 | 1002.1 |
| 20260504183646 | 66 | 179 | 7.0 | 50.0 | 4.96 | 1.00 | 0.00 | 44 | 1002.1 |
| 20260504183246 | 66 | 179 | 6.0 | 50.0 | 4.96 | 1.01 | 0.00 | 44 | 1002.1 |
| 20260504182846 | 66 | 179 | 7.0 | 50.0 | 4.96 | 1.01 | 0.00 | 43 | 1002.1 |
| 20260504182446 | 66 | 183 | 6.0 | 50.0 | 4.96 | 1.02 | 0.00 | 43 | 1002.1 |
| 20260504182046 | 66 | 184 | 7.0 | 50.0 | 4.96 | 1.02 | 0.00 | 43 | 1002.0 |
| 20260504181646 | 66 | 189 | 5.0 | 50.0 | 4.96 | 1.02 | 0.00 | 42 | 1002.0 |
| 20260504181246 | 66 | 184 | 6.0 | 50.0 | 4.96 | 1.02 | 0.00 | 42 | 1001.9 |
| 20260504180846 | 66 | 194 | 6.0 | 50.0 | 4.96 | 1.03 | 0.00 | 41 | 1001.9 |
| 20260504180446 | 68 | 201 | 7.0 | 50.0 | 4.96 | 1.04 | 0.00 | 41 | 1001.9 |
| 20260504180046 | 68 | 211 | 7.0 | 50.0 | 4.96 | 1.05 | 0.00 | 41 | 1001.8 |
| 20260504175646 | 68 | 211 | 7.0 | 50.0 | 4.96 | 1.06 | 0.00 | 40 | 1001.8 |
| 20260504175246 | 68 | 217 | 7.0 | 50.0 | 4.96 | 1.07 | 0.00 | 40 | 1001.8 |
| 20260504174846 | 68 | 217 | 7.0 | 50.0 | 5.00 | 1.07 | 0.00 | 39 | 1001.8 |
| 20260504174446 | 68 | 224 | 6.0 | 50.0 | 5.00 | 1.09 | 0.00 | 39 | 1001.8 |
| 20260504174046 | 70 | 222 | 6.0 | 50.0 | 5.04 | 1.09 | 0.00 | 38 | 1001.8 |
| 20260504173646 | 70 | 217 | 5.0 | 50.0 | 5.04 | 1.09 | 0.00 | 38 | 1001.8 |
| 20260504173246 | 72 | 228 | 7.0 | 50.0 | 5.08 | 1.11 | 0.00 | 38 | 1001.8 |
| 20260504172846 | 72 | 224 | 6.0 | 50.0 | 5.12 | 1.10 | 0.00 | 37 | 1001.8 |
| 20260504172446 | 72 | 224 | 5.0 | 50.0 | 5.16 | 1.11 | 0.00 | 37 | 1001.8 |
| 20260504172046 | 70 | 230 | 6.0 | 50.0 | 5.16 | 1.11 | 0.00 | 37 | 1001.7 |
| 20260504171646 | 72 | 228 | 5.0 | 50.0 | 5.24 | 1.14 | 0.00 | 36 | 1001.7 |
| 20260504171246 | 72 | 224 | 5.0 | 50.0 | 5.24 | 1.17 | 0.00 | 36 | 1001.7 |
| 20260504170846 | 72 | 230 | 6.0 | 50.0 | 5.28 | 1.18 | 0.00 | 35 | 1001.7 |
| 20260504170446 | 73 | 228 | 5.0 | 50.0 | 5.31 | 1.23 | 0.00 | 35 | 1001.6 |
| 20260504160446 | 82 | 217 | 6.0 | 50.0 | 5.43 | 1.39 | 0.00 | 32 | 1001.8 |
| 20260504150446 | 82 | 235 | 10.0 | 50.0 | 5.43 | 1.42 | 0.00 | 29 | 1002.0 |
| 20260504141246 | 84 | 190 | 12.0 | 50.0 | 5.43 | 1.52 | 0.00 | 28 | 1002.3 |
| 20260504140845 | 82 | 179 | 20.0 | 50.0 | 5.43 | 1.54 | 0.00 | 29 | 1002.3 |
| 20260504140445 | 86 | 189 | 10.0 | 50.0 | 5.43 | 1.61 | 0.00 | 29 | 1002.4 |
| 20260504130445 | 84 | 151 | 15.0 | 50.0 | 5.43 | 1.56 | 0.00 | 31 | 1002.9 |
| 20260504110445 | 86 | 155 | 11.0 | 50.0 | 5.43 | 1.53 | 0.00 | 43 | 1004.0 |
| 20260504100445 | 81 | 172 | 16.0 | 50.0 | 5.43 | 1.43 | 0.00 | 44 | 1004.8 |
| 20260504081645 | 79 | 145 | 6.0 | 50.0 | 5.43 | 1.36 | 0.00 | 42 | 1005.7 |
| 20260504081245 | 79 | 196 | 9.0 | 50.0 | 5.43 | 1.36 | 0.00 | 42 | 1005.7 |
| 20260504080845 | 77 | 168 | 11.0 | 50.0 | 5.43 | 1.34 | 0.00 | 42 | 1005.7 |
| 20260504080445 | 77 | 183 | 8.0 | 50.0 | 5.43 | 1.33 | 0.00 | 43 | 1005.7 |
| 20260504050445 | 61 | 177 | 3.0 | 50.0 | 5.39 | 1.27 | 0.00 | 47 | 1005.3 |
| 20260504045645 | 61 | 168 | 3.0 | 50.0 | 5.35 | 1.20 | 0.00 | 48 | 1005.3 |
| 20260504045245 | 61 | 132 | 3.0 | 50.0 | 5.35 | 1.08 | 0.00 | 49 | 1005.2 |
| 20260504044845 | 61 | 179 | 4.0 | 50.0 | 5.35 | 1.22 | 0.00 | 51 | 1005.3 |
| 20260504044445 | 59 | 177 | 6.0 | 50.0 | 5.31 | 1.21 | 0.00 | 52 | 1005.2 |
| 20260504043245 | 59 | 177 | 3.0 | 50.0 | 5.28 | 1.21 | 0.00 | 58 | 1005.1 |
| 20260504042845 | 57 | 168 | 3.0 | 50.0 | 5.28 | 1.19 | 0.00 | 60 | 1005.1 |
| 20260504042445 | 57 | 173 | 2.0 | 50.0 | 5.28 | 1.15 | 0.00 | 62 | 1005.2 |
| 20260504041245 | 55 | 179 | 6.0 | 50.0 | 5.20 | 1.10 | 0.00 | 66 | 1005.2 |
| 20260504040445 | 54 | 184 | 5.0 | 50.0 | 5.20 | 1.06 | 0.00 | 68 | 1005.2 |
| 20260504035645 | 52 | 173 | 4.0 | 50.0 | 5.16 | 1.02 | 0.00 | 69 | 1005.1 |
| 20260504035245 | 52 | 179 | 5.0 | 50.0 | 5.16 | 0.97 | 0.00 | 69 | 1005.0 |
| 20260504034845 | 50 | 149 | 6.0 | 50.0 | 5.12 | 0.94 | 0.00 | 68 | 1005.0 |
| 20260504034445 | 50 | 162 | 6.0 | 50.0 | 5.08 | 0.85 | 0.00 | 68 | 1005.0 |
| 20260504033645 | 50 | 194 | 6.0 | 50.0 | 5.00 | 0.88 | 0.00 | 68 | 1005.0 |
| 20260504033244 | 50 | 151 | 7.0 | 50.0 | 4.88 | 0.85 | 0.00 | 68 | 1005.0 |
| 20260504032845 | 50 | 149 | 6.0 | 50.0 | 4.96 | 0.82 | 0.00 | 68 | 1005.0 |
| 20260504032445 | 48 | 168 | 6.0 | 50.0 | 4.96 | 0.77 | 0.00 | 68 | 1005.0 |
| 20260504031645 | 50 | 172 | 10.0 | 50.0 | 4.92 | 0.76 | 0.00 | 67 | 1004.9 |
| 20260504031245 | 48 | 161 | 9.0 | 50.0 | 4.92 | 0.73 | 0.00 | 67 | 1004.9 |
| 20260504030845 | 48 | 172 | 9.0 | 50.0 | 4.92 | 0.72 | 0.00 | 67 | 1004.9 |
| 20260504030445 | 48 | 173 | 8.0 | 50.0 | 4.88 | 0.70 | 0.00 | 67 | 1005.0 |
| 20260504030045 | 48 | 168 | 7.0 | 50.0 | 4.88 | 0.70 | 0.00 | 67 | 1005.0 |
| 20260504025645 | 48 | 156 | 7.0 | 50.0 | 4.88 | 0.70 | 0.00 | 67 | 1005.0 |
| 20260504025244 | 48 | 168 | 7.0 | 50.0 | 4.80 | 0.70 | 0.00 | 67 | 1004.9 |
| 20260504024845 | 48 | 177 | 7.0 | 50.0 | 4.88 | 0.70 | 0.00 | 67 | 1004.9 |
| 20260504024444 | 48 | 162 | 8.0 | 50.0 | 4.88 | 0.70 | 0.00 | 67 | 1004.9 |
| 20260504024045 | 48 | 168 | 7.0 | 50.0 | 4.88 | 0.70 | 0.00 | 66 | 1004.8 |
| 20260504023644 | 48 | 172 | 8.0 | 50.0 | 4.88 | 0.70 | 0.00 | 66 | 1004.8 |
| 20260504023245 | 48 | 161 | 6.0 | 50.0 | 4.88 | 0.70 | 0.00 | 66 | 1004.9 |
| 20260504022844 | 48 | 156 | 7.0 | 50.0 | 4.88 | 0.70 | 0.00 | 66 | 1004.9 |